Location: Helsinki
(60.1699°N, 24.9384°E)
Time: 00:27:04
(UTC+02:00)

Vanguard 2 Rocket - Pass Details

Date: 29 September 2023
Orbit: 553 x 3312 km, 32.9° (Epoch: 28 November)

Event Time Altitude Azimuth Distance (km) Brightness Sun altitude
Rises 13:43:11 0° 235° (SW) 6,751 11.9 27.1°
Reaches altitude 10° 13:48:31 10° 225° (SW) 6,000 12.1 27.0°
Maximum altitude 14:02:50 27° 178° (S) 4,960 12.6 26.6°
Drops below altitude 10° 14:16:50 10° 130° (SE) 5,864 11.4 26.1°
Sets 14:21:57 0° 120° (ESE) 6,578 11.4 25.9°
